Regional Weather Roundup
Issued by NWS Cleveland, OH

Home | Current Version | Previous Version | Graphics & Text | Print | Product List | Glossary On
Versions: 1 2 3 4 5 6 7 8 9 10 11 12 13 14 15 16 17 18 19 20 21 22 23 24 25 26 27 28 29 30 31 32 33 34 35 36 37 38 39 40 41 42 43 44 45 46 47 48 49 50
218
ASUS41 KCLE 300000
RWRCLE
OHIO REGIONAL WEATHER ROUNDUP
NATIONAL WEATHER SERVICE WILMINGTON, OH
800 PM EDT SUN MAY 29 2016

NOTE: "FAIR" INDICATES FEW OR NO CLOUDS BELOW 12,000 FEET WITH NO
SIGNIFICANT WEATHER AND/OR OBSTRUCTIONS TO VISIBILITY.

OHZ001>008-015>018-024>027-034-035-043-044-300100-
   NORTHWEST OHIO

CITY           SKY/WX    TMP DP  RH WIND       PRES   REMARKS
DEFIANCE       FAIR      85  51  31 VRB5      29.94S
FINDLAY        FAIR      83  58  42 W12       29.95R
TOLEDO EXPRESS FAIR      84  52  33 W10       29.92R
TOLEDO EXEC    FAIR      84  59  42 SW13      29.93R
LIMA           FAIR      81  61  50 W9        29.97R
$$

OHZ009>014-019>023-028>033-038-089-300100-
   NORTHEAST OHIO

CITY           SKY/WX    TMP DP  RH WIND       PRES   REMARKS
CLE-HOPKINS    MOCLDY    82  61  48 S10       29.98R
CLE-LAKEFRONT  FAIR      82  62  50 S13       29.95R
CUY CO. ARPT   MOCLDY    81  63  54 S14       29.99R
LORAIN-ELYRIA  FAIR      79  62  56 S10       29.96R HAZE
ASHTABULA      FAIR      75  62  64 S13       30.00F
AKRON-CANTON   MOCLDY    74  61  63 S18G24    30.02S
WOOSTER        NOT AVBL
MANSFIELD      MOCLDY    65  61  87 S17G25    30.02F
YOUNGSTOWN     MOCLDY    73  60  63 S8        30.02F
$$

OHZ042-051>053-060>062-070>072-077>081-300100-
  SOUTHWEST OHIO

CITY           SKY/WX    TMP DP  RH WIND       PRES   REMARKS
CINC-COVINGTON FAIR      75  68  78 CALM      30.01S THUNDER
CINC-LUNKEN    FAIR      74  69  85 NE3       29.99S
HAMILTON       FAIR      84  66  54 VRB7G16   29.99S
DAYTON         MOCLDY    75  64  69 SE9       30.00S THUNDER HAZE
WRIGHT-PAT AFB NOT AVBL
DAYTON GENERAL FAIR      82  62  50 SW6       29.99S
WILMINGTON     CLOUDY    72  57  59 NE15G21   30.01S THUNDER
$$

OHZ036-037-039>041-045>050-054>059-063>069-073>076-082>088-300100-
  CENTRAL AND SOUTHEAST OHIO

CITY           SKY/WX    TMP DP  RH WIND       PRES   REMARKS
COLUMBUS       MOCLDY    74  61  63 SW7       30.00R
OSU AIRPORT    FAIR      73  59  61 SW7       30.00S
BOLTON FIELD   NOT AVBL
RICKENBACK AFB NOT AVBL
NEWARK         FAIR      78  65  63 SE10      30.00F
MARION         MOCLDY    71  63  75 SE6       29.99S
LANCASTER      MOCLDY    73  61  65 SW17G25   30.04R
ZANESVILLE     FAIR      74  62  66 SE5       30.03F
NEW PHILLY     FAIR      74  59  59 SE5       30.04F
$$




USA.gov is the U.S. government's official web portal to all federal, state and local government web resources and services.